Regional Weather Roundup
Issued by NWS

Home | Current Version | Previous Version | Text Only | Print | Product List | Glossary On
Versions: 1 2 3 4 5 6 7 8 9 10 11 12 13 14 15 16 17 18 19 20 21 22 23 24 25 26 27 28 29 30 31 32 33 34 35 36 37 38 39 40 41 42 43 44 45 46 47 48 49 50
000
ASUS45 KPSR 171810
RWRAZ

ARIZONA HOURLY REGIONAL WEATHER ROUNDUP
NATIONAL WEATHER SERVICE PHOENIX AZ
1100 AM MST SUN DEC 17 2017

NOTE: FAIR INDICATES FEW OR NO CLOUDS BELOW 12,000 FEET WITH NO
SIGNIFICANT WEATHER AND/OR OBSTRUCTIONS TO VISIBILITY.

AZZ001>003-036-171900-
NORTHWEST ARIZONA

CITY           SKY/WX    TMP DP  RH WIND       PRES   REMARKS
BULLHEAD CITY  SUNNY     57  21  24 N35G45    30.01R
KINGMAN        SUNNY     46  21  37 NE14      30.04R
6HR MIN TEMP:  33; 6HR MAX TEMP:  46;

$$

AZZ004>008-015-016-018-171900-
NORTH CENTRAL ARIZONA

CITY           SKY/WX    TMP DP  RH WIND       PRES   REMARKS
GRAND CANYON   SUNNY     43   8  23 NE10      30.04R
6HR MIN TEMP:  12; 6HR MAX TEMP:  43;

WILLIAMS       SUNNY     41  12  30 N5        29.99S
PRESCOTT       SUNNY     44  20  38 N7        29.99R
6HR MIN TEMP:  26; 6HR MAX TEMP:  44;

FLAGSTAFF      SUNNY     40  11  30 E13G23    30.01S WCI  32
6HR MIN TEMP:  24; 6HR MAX TEMP:  40;

PAYSON         PTSUNNY   41  36  81 CALM      29.98F
PAGE           SUNNY     40  18  41 N3        30.08R
6HR MIN TEMP:  26; 6HR MAX TEMP:  40;

$$

AZZ009>014-017-171900-
NORTHEAST ARIZONA

CITY           SKY/WX    TMP DP  RH WIND       PRES   REMARKS
WINSLOW        MOSUNNY   40   8  26 NW5       30.04F
6HR MIN TEMP:  26; 6HR MAX TEMP:  40;

SAINT JOHNS    CLOUDY    44   9  23 N6        30.00S
6HR MIN TEMP:  25; 6HR MAX TEMP:  44;

WINDOW ROCK    MOSUNNY   47  11  23 VRB3      30.02F
6HR MIN TEMP:  19; 6HR MAX TEMP:  47;

SHOW LOW       CLOUDY    41  27  56 CALM      30.02F
$$

AZZ540-542>544-546-548-171900-
GREATER PHOENIX AREA

CITY           SKY/WX    TMP DP  RH WIND       PRES   REMARKS
PHOENIX        PTSUNNY   55  46  71 E9        29.94R
6HR MIN TEMP:  50; 6HR MAX TEMP:  56; 6HR PCP:  0.13;

BUCKEYE        PTSUNNY   55  55 100 E13       29.95R
GLENDALE       MOSUNNY   55  54  94 CALM      29.96R
LUKE AFB       SUNNY     57  44  63 E7        29.94R
6HR MIN TEMP:  50; 6HR MAX TEMP:  57; 6HR PCP: TRACE;

DEER VALLEY    MOSUNNY   55  47  74 S7        29.94R
6HR MIN TEMP:  48; 6HR MAX TEMP:  56; 6HR PCP:  0.05;

SCOTTSDALE     CLOUDY    57  43  59 SE9       29.96R
6HR MIN TEMP:  49; 6HR MAX TEMP:  59; 6HR PCP:  0.27;

MESA-FALCON    PTSUNNY   54  46  76 E7        29.96R
MESA-GATEWAY   PTSUNNY   54  46  76 E6        29.97R
CHANDLER       MOSUNNY   54  48  82 NE6       29.95S
$$

AZZ539-553-171900-
SOUTHWEST MARICOPA COUNTY AND PINAL COUNTY

CITY           SKY/WX    TMP DP  RH WIND       PRES   REMARKS
CASA GRANDE    NOT AVBL
GILA BEND      PTSUNNY   59  45  58 E8        29.92R
                                      6HR PCP:  0.01;

$$

AZZ503-504-507>509-171900-
SOUTHEAST ARIZONA

CITY           SKY/WX    TMP DP  RH WIND       PRES   REMARKS
TUCSON         CLOUDY    50  45  83 E7        29.95S
6HR MIN TEMP:  46; 6HR MAX TEMP:  51;

DAVIS-MONTHAN  CLOUDY    48  45  89 SE5       29.93F
6HR MIN TEMP:  45; 6HR MAX TEMP:  49; 6HR PCP:  0.24;

RYAN FIELD     CLOUDY    48  46  93 E6        29.96S
NOGALES        CLOUDY    47  47 100 MISG      29.93R
6HR MIN TEMP:  42; 6HR MAX TEMP:  47; 6HR PCP:  0.43;

SIERRA VISTA   CLOUDY    43  40  90 SE10      29.96R
6HR MIN TEMP:  39; 6HR MAX TEMP:  43; 6HR PCP:  0.15;

DOUGLAS        LGT RAIN  41  41 100 SE12      30.01R
6HR MIN TEMP:  39; 6HR MAX TEMP:  43; 6HR PCP:  0.15;

SAFFORD        CLOUDY    49  39  68 E16G23    29.97S
6HR MIN TEMP:  38; 6HR MAX TEMP:  49; 6HR PCP:  0.28;

$$

AZZ532-171900-
SOUTHWEST ARIZONA

CITY           SKY/WX    TMP DP  RH WIND       PRES   REMARKS
YUMA           CLOUDY    60  39  45 CALM      29.94R
6HR MIN TEMP:  51; 6HR MAX TEMP:  60;

$$

CAZ041-043-047-048-061-525>527-560>570-171900-
SOUTHERN CALIFORNIA

CITY           SKY/WX    TMP DP  RH WIND       PRES   REMARKS
DOWNTOWN L.A.  SUNNY     66  18  15 CALM      29.92R
6HR MIN TEMP:  48; 6HR MAX TEMP:  66;

L.A. AIRPORT   MOSUNNY   66  18  15 N8        29.93R
6HR MIN TEMP:  56; 6HR MAX TEMP:  66;

SAN DIEGO      MOSUNNY   59  46  62 CALM      29.92R
6HR MIN TEMP:  50; 6HR MAX TEMP:  60;

BURBANK        SUNNY     64  17  16 VRB6      29.93R
6HR MIN TEMP:  56; 6HR MAX TEMP:  64;

ONTARIO        MOSUNNY   63  16  16 E20G29    29.93R
6HR MIN TEMP:  52; 6HR MAX TEMP:  63;

RIVERSIDE      SUNNY     59  17  19 N18G30    29.97R
6HR MIN TEMP:  53; 6HR MAX TEMP:  59;

PALM SPRINGS   SUNNY     65  18  16 N14       30.04R
6HR MIN TEMP:  59; 6HR MAX TEMP:  65;

EL CENTRO NAS  SUNNY     66  25  21 N17       29.98R
6HR MIN TEMP:  54; 6HR MAX TEMP:  66;

IMPERIAL       SUNNY     65  27  23 N13       29.96R
6HR MIN TEMP:  57; 6HR MAX TEMP:  65;

BLYTHE         SUNNY     62  24  23 N23       29.98R
6HR MIN TEMP:  55; 6HR MAX TEMP:  62;

NEEDLES        SUNNY     60  22  23 N29G39    30.01S
6HR MIN TEMP:  54; 6HR MAX TEMP:  60;

$$

NVZ020-UTZ003-171900-
SOUTHERN NEVADA-UTAH

CITY           SKY/WX    TMP DP  RH WIND       PRES   REMARKS
LAS VEGAS      SUNNY     51  17  26 N21G29    30.11R
6HR MIN TEMP:  47; 6HR MAX TEMP:  51;

SALT LAKE CITY MOSUNNY   31  26  82 CALM      30.22F
6HR MIN TEMP:  27; 6HR MAX TEMP:  32;

$$

NMZ009-TXZ055-171900-
NEW MEXICO-WEST TEXAS

CITY           SKY/WX    TMP DP  RH WIND       PRES   REMARKS
ALBUQUERQUE    MOSUNNY   43  13  29 S7        30.05R
6HR MIN TEMP:  30; 6HR MAX TEMP:  43;

EL PASO        CLOUDY    51  35  54 SW8       30.02S
6HR MIN TEMP:  35; 6HR MAX TEMP:  51; 6HR PCP: TRACE;

$$


........................KEY........................
SKY/WX - SKY CONDITION/WEATHER
TMP    - TEMPERATURE IN FAHRENHEIT
DP     - DEW POINT IN FAHRENHEIT
RH     - RELATIVE HUMIDITY IN PERCENT
WIND   - DIRECTION AND SPEED IN MILES PER HOUR (MPH)
VRB    - VARIABLE WIND DIRECTION
PRES   - MEAN SEA LEVEL PRESSURE IN INCHES OF MERCURY
         F - FALLING PRESSURE   R - RISING PRESSURE
         S - STEADY PRESSURE
VSB    - VISIBILITY IN MILES
HX     - HEAT INDEX IN FAHRENHEIT
WCI    - WIND CHILL INDEX IN FAHRENHEIT
TC     - TEMPERATURE IN CELSIUS WHICH IS ALSO KNOWN AS
         TEMPERATURE IN CENTIGRADE
AFB    - AIR FORCE BASE
         LUKE AFB IS LUKE AIR FORCE BASE
         DAVIS-MONTHAN IS DAVIS-MONTHAN AIR FORCE BASE
NAS    - NAVAL AIR STATION
         EL CENTRO NAS IS EL CENTRO NAVAL AIR STATION
N/A    - NOT AVAILABLE




USA.gov is the U.S. government's official web portal to all federal, state and local government web resources and services.